TOM888 ENAL-LFMT

Flight info

Callsign TOM888
Flight time 2h 53m
Altitude 37000
Route OGDIT DCT ULVOS DCT MITSI DCT AMADA DCT PIPQU DCT GESLO N852 DIK M624 ROUSY DCT GILIR T14 ONNOF DCT BELUS DCT LUXAN A6 MTL DCT NG
Aircraft B738/M-SDE2E3FGHIRWXY/LB1

Departure

Time 2026-04-23 14:29
Airport Ålesund Airport (ENAL)

Arrival

Time 2026-04-23 17:22
Airport Montpellier-Méditerranée Airport (LFMT)
Time Latitude Longitude Altitude Speed Heading
2026-04-23 14:02 62.55936 6.11549 78 ft 0 kts 153°
2026-04-23 14:06 62.55936 6.11550 78 ft 0 kts 155°
2026-04-23 14:22 62.55950 6.11535 72 ft 4 kts 152°
2026-04-23 14:22 62.55974 6.11508 69 ft 4 kts 154°
2026-04-23 14:22 62.55999 6.11483 74 ft 4 kts 154°
2026-04-23 14:22 62.56003 6.11478 71 ft 1 kts 153°
2026-04-23 14:25 62.56000 6.11485 70 ft 2 kts 139°
2026-04-23 14:25 62.56005 6.11539 78 ft 7 kts 41°
2026-04-23 14:26 62.56059 6.11642 72 ft 15 kts 59°
2026-04-23 14:26 62.56118 6.11905 70 ft 23 kts 64°
2026-04-23 14:26 62.56172 6.12084 72 ft 13 kts 34°
2026-04-23 14:26 62.56273 6.12157 70 ft 18 kts 20°
2026-04-23 14:27 62.56358 6.12469 58 ft 31 kts 65°
2026-04-23 14:27 62.56439 6.12875 47 ft 14 kts 90°
2026-04-23 14:27 62.56455 6.13042 46 ft 8 kts 26°
2026-04-23 14:27 62.56481 6.12968 46 ft 9 kts 230°
2026-04-23 14:28 62.56445 6.12860 47 ft 9 kts 244°
2026-04-23 14:28 62.56381 6.12570 54 ft 51 kts 244°
2026-04-23 14:28 62.56130 6.11425 82 ft 116 kts 244°
2026-04-23 14:28 62.55711 6.09496 271 ft 154 kts 245°
2026-04-23 14:29 62.55281 6.07489 1329 ft 147 kts 246°
2026-04-23 14:29 62.54838 6.05432 2133 ft 158 kts 246°
2026-04-23 14:29 62.54323 6.03044 2492 ft 191 kts 246°
2026-04-23 14:29 62.53717 6.00269 2803 ft 215 kts 245°
2026-04-23 14:30 62.53036 5.97183 3221 ft 233 kts 245°
2026-04-23 14:30 62.52326 5.93984 3974 ft 243 kts 245°
2026-04-23 14:30 62.51594 5.90695 5014 ft 243 kts 247°
2026-04-23 14:30 62.50599 5.87651 5882 ft 259 kts 225°
2026-04-23 14:31 62.48913 5.85863 6621 ft 285 kts 196°
2026-04-23 14:31 62.46887 5.86174 7410 ft 304 kts 163°
2026-04-23 14:31 62.44952 5.88101 8330 ft 308 kts 155°
2026-04-23 14:31 62.43016 5.90186 9155 ft 314 kts 155°
2026-04-23 14:32 62.41033 5.92283 10004 ft 320 kts 155°
2026-04-23 14:32 62.39054 5.94568 10761 ft 328 kts 151°
2026-04-23 14:32 62.37017 5.97112 11069 ft 351 kts 150°
2026-04-23 14:32 62.34869 5.99843 11256 ft 374 kts 150°
2026-04-23 14:33 62.32560 6.02774 11518 ft 395 kts 150°
2026-04-23 14:33 62.30160 6.05797 12091 ft 404 kts 150°
2026-04-23 14:33 62.27721 6.08843 12874 ft 406 kts 150°
2026-04-23 14:33 62.25267 6.11888 13705 ft 409 kts 150°
2026-04-23 14:34 62.22799 6.14936 14442 ft 412 kts 151°
2026-04-23 14:34 62.20309 6.18001 15111 ft 414 kts 151°
2026-04-23 14:34 62.17805 6.21078 15846 ft 415 kts 151°
2026-04-23 14:34 62.15327 6.24117 16552 ft 417 kts 151°
2026-04-23 14:35 62.12802 6.27207 17261 ft 419 kts 151°
2026-04-23 14:35 62.10261 6.30310 17902 ft 422 kts 152°
2026-04-23 14:35 62.07703 6.33430 18523 ft 425 kts 152°
2026-04-23 14:35 62.05133 6.36559 19192 ft 425 kts 152°
2026-04-23 14:36 62.02565 6.39680 19808 ft 426 kts 152°
2026-04-23 14:36 61.99984 6.42807 20357 ft 428 kts 152°
2026-04-23 14:36 61.97384 6.45937 20918 ft 430 kts 152°
2026-04-23 14:36 61.94804 6.49031 21461 ft 433 kts 152°
2026-04-23 14:37 61.92176 6.52178 22003 ft 435 kts 152°
2026-04-23 14:37 61.89538 6.55335 22527 ft 437 kts 152°
2026-04-23 14:37 61.86883 6.58504 23057 ft 439 kts 152°
2026-04-23 14:37 61.84161 6.61431 23521 ft 439 kts 162°
2026-04-23 14:38 61.81177 6.62607 23989 ft 437 kts 180°
2026-04-23 14:38 61.78141 6.62654 24456 ft 437 kts 182°
2026-04-23 14:38 61.75093 6.62632 24818 ft 440 kts 182°
2026-04-23 14:38 61.72025 6.62605 25224 ft 442 kts 182°
2026-04-23 14:39 61.68983 6.62594 25616 ft 445 kts 182°
2026-04-23 14:39 61.65881 6.62602 26001 ft 447 kts 182°
2026-04-23 14:39 61.62766 6.62629 26377 ft 448 kts 182°
2026-04-23 14:39 61.59637 6.62669 26723 ft 451 kts 182°
2026-04-23 14:40 61.56490 6.62716 27025 ft 454 kts 182°
2026-04-23 14:40 61.53329 6.62766 27359 ft 456 kts 182°
2026-04-23 14:40 61.50151 6.62819 27717 ft 458 kts 182°
2026-04-23 14:40 61.46960 6.62871 28044 ft 460 kts 182°
2026-04-23 14:41 61.43798 6.62921 28385 ft 462 kts 182°
2026-04-23 14:41 61.40580 6.62972 28692 ft 463 kts 182°
2026-04-23 14:41 61.37356 6.63023 29129 ft 463 kts 182°
2026-04-23 14:41 61.34150 6.63075 29644 ft 460 kts 182°
2026-04-23 14:42 61.30958 6.63126 30154 ft 458 kts 182°
2026-04-23 14:42 61.27778 6.63177 30580 ft 456 kts 182°
2026-04-23 14:42 61.24604 6.63226 30934 ft 456 kts 183°
2026-04-23 14:42 61.21434 6.63275 31325 ft 455 kts 183°
2026-04-23 14:43 61.18275 6.63323 31729 ft 453 kts 183°
2026-04-23 14:43 61.15171 6.63371 32085 ft 452 kts 183°
2026-04-23 14:43 61.12028 6.63419 32473 ft 451 kts 183°
2026-04-23 14:43 61.08891 6.63467 32841 ft 450 kts 183°
2026-04-23 14:44 61.05761 6.63514 33233 ft 449 kts 183°
2026-04-23 14:44 61.02640 6.63562 33624 ft 448 kts 183°
2026-04-23 14:44 60.99526 6.63609 33990 ft 447 kts 183°
2026-04-23 14:44 60.96422 6.63656 34333 ft 446 kts 183°
2026-04-23 14:45 60.93318 6.63703 34641 ft 446 kts 184°
2026-04-23 14:45 60.90260 6.63749 34926 ft 445 kts 184°
2026-04-23 14:45 60.87162 6.63795 35179 ft 445 kts 184°
2026-04-23 14:45 60.84061 6.63841 35408 ft 446 kts 184°
2026-04-23 14:46 60.80955 6.63887 35666 ft 446 kts 184°
2026-04-23 14:46 60.77861 6.63934 35989 ft 444 kts 184°
2026-04-23 14:46 60.74776 6.63981 36309 ft 443 kts 184°
2026-04-23 14:46 60.71697 6.64027 36569 ft 443 kts 184°
2026-04-23 14:47 60.68617 6.64073 36801 ft 443 kts 184°
2026-04-23 14:47 60.65538 6.64118 37066 ft 442 kts 184°
2026-04-23 14:47 60.62466 6.64164 37344 ft 441 kts 184°
2026-04-23 14:47 60.59425 6.64206 37325 ft 446 kts 184°
2026-04-23 14:48 60.53217 6.64297 37341 ft 445 kts 184°
2026-04-23 14:48 60.47067 6.64392 37324 ft 439 kts 184°
2026-04-23 14:49 60.40972 6.64483 37332 ft 437 kts 184°
2026-04-23 14:49 60.34952 6.64570 37346 ft 435 kts 184°
2026-04-23 14:50 60.28901 6.64656 37345 ft 435 kts 184°
2026-04-23 14:50 60.22835 6.64742 37352 ft 437 kts 184°
2026-04-23 14:51 60.16745 6.64829 37341 ft 439 kts 184°
2026-04-23 14:51 60.10631 6.64917 37348 ft 440 kts 184°
2026-04-23 14:52 60.04536 6.65004 37327 ft 442 kts 184°
2026-04-23 14:52 59.98374 6.65092 37332 ft 444 kts 184°
2026-04-23 14:53 59.92189 6.65180 37327 ft 445 kts 184°
2026-04-23 14:53 59.85987 6.65268 37327 ft 446 kts 184°
2026-04-23 14:54 59.79820 6.65356 37317 ft 447 kts 184°
2026-04-23 14:54 59.73611 6.65445 37322 ft 446 kts 184°
2026-04-23 14:55 59.67416 6.65532 37322 ft 444 kts 184°
2026-04-23 14:55 59.61247 6.65618 37325 ft 443 kts 184°
2026-04-23 14:56 59.55139 6.65703 37310 ft 441 kts 184°
2026-04-23 14:56 59.49035 6.65382 37331 ft 438 kts 187°
2026-04-23 14:57 59.42961 6.64767 37321 ft 437 kts 187°
2026-04-23 14:57 59.36893 6.64178 37324 ft 436 kts 186°
2026-04-23 14:58 59.30873 6.63649 37339 ft 436 kts 186°
2026-04-23 14:58 59.24813 6.63140 37335 ft 436 kts 186°
2026-04-23 14:59 59.18755 6.62638 37338 ft 436 kts 186°
2026-04-23 14:59 59.12696 6.62139 37321 ft 435 kts 186°
2026-04-23 15:00 59.06691 6.61645 37320 ft 435 kts 186°
2026-04-23 15:00 59.00649 6.61150 37327 ft 434 kts 186°
2026-04-23 15:01 58.94613 6.60655 37317 ft 434 kts 186°
2026-04-23 15:01 58.88573 6.60162 37304 ft 435 kts 186°
2026-04-23 15:02 58.82525 6.59670 37289 ft 435 kts 186°
2026-04-23 15:02 58.76515 6.59184 37287 ft 435 kts 186°
2026-04-23 15:03 58.70462 6.58695 37281 ft 436 kts 186°
2026-04-23 15:03 58.64403 6.58208 37286 ft 436 kts 186°
2026-04-23 15:04 58.58346 6.57723 37275 ft 436 kts 186°
2026-04-23 15:04 58.52325 6.57242 37271 ft 436 kts 186°
2026-04-23 15:05 58.46262 6.56759 37272 ft 436 kts 186°
2026-04-23 15:05 58.40194 6.56278 37267 ft 436 kts 186°
2026-04-23 15:06 58.34128 6.55798 37264 ft 436 kts 186°
2026-04-23 15:06 58.28067 6.55322 37273 ft 435 kts 186°
2026-04-23 15:07 58.22057 6.54850 37254 ft 435 kts 186°
2026-04-23 15:07 58.16018 6.54378 37271 ft 434 kts 186°
2026-04-23 15:08 58.09992 6.53908 37267 ft 433 kts 186°
2026-04-23 15:09 58.01005 6.53211 37280 ft 432 kts 186°
2026-04-23 15:09 57.95008 6.52747 37288 ft 431 kts 187°
2026-04-23 15:10 57.90031 6.52363 37283 ft 431 kts 186°
2026-04-23 15:10 57.83042 6.51826 37303 ft 430 kts 186°
2026-04-23 15:11 57.77104 6.51370 37289 ft 430 kts 186°
2026-04-23 15:11 57.71123 6.50915 37291 ft 430 kts 186°
2026-04-23 15:12 57.65150 6.50460 37298 ft 430 kts 186°
2026-04-23 15:12 57.59170 6.50007 37314 ft 430 kts 186°
2026-04-23 15:13 57.53228 6.49558 37316 ft 430 kts 186°
2026-04-23 15:13 57.47248 6.49107 37278 ft 430 kts 186°
2026-04-23 15:14 57.41264 6.48658 37295 ft 430 kts 186°
2026-04-23 15:14 57.35284 6.48211 37299 ft 430 kts 186°
2026-04-23 15:15 57.29306 6.47765 37316 ft 430 kts 185°
2026-04-23 15:15 57.23365 6.47324 37306 ft 430 kts 185°
2026-04-23 15:16 57.17386 6.46880 37304 ft 430 kts 185°
2026-04-23 15:16 57.11413 6.46440 37310 ft 429 kts 186°
2026-04-23 15:17 57.05444 6.46000 37318 ft 429 kts 185°
2026-04-23 15:17 56.99517 6.45566 37324 ft 429 kts 185°
2026-04-23 15:18 56.93553 6.45211 37322 ft 429 kts 184°
2026-04-23 15:18 56.87586 6.44895 37323 ft 429 kts 184°
2026-04-23 15:19 56.81620 6.44577 37333 ft 429 kts 185°
2026-04-23 15:19 56.75655 6.44251 37332 ft 429 kts 185°
2026-04-23 15:20 56.70683 6.43977 37335 ft 430 kts 185°
2026-04-23 15:20 56.63726 6.43595 37330 ft 431 kts 184°
2026-04-23 15:21 56.57737 6.43267 37339 ft 431 kts 184°
2026-04-23 15:21 56.51780 6.42943 37349 ft 431 kts 185°
2026-04-23 15:22 56.45786 6.42618 37358 ft 431 kts 184°
2026-04-23 15:22 56.39794 6.42293 37355 ft 431 kts 184°
2026-04-23 15:23 56.33801 6.41970 37352 ft 430 kts 184°
2026-04-23 15:23 56.27855 6.41649 37346 ft 430 kts 184°
2026-04-23 15:24 56.21876 6.41329 37357 ft 429 kts 185°
2026-04-23 15:24 56.15907 6.41010 37350 ft 429 kts 184°
2026-04-23 15:25 56.09944 6.40692 37357 ft 428 kts 184°
2026-04-23 15:25 56.04996 6.40429 37360 ft 427 kts 184°
2026-04-23 15:26 55.98085 6.40062 37346 ft 428 kts 184°
2026-04-23 15:26 55.92136 6.39748 37365 ft 428 kts 184°
2026-04-23 15:27 55.86186 6.39434 37353 ft 428 kts 184°
2026-04-23 15:27 55.80227 6.39121 37368 ft 428 kts 184°
2026-04-23 15:28 55.74304 6.38812 37356 ft 429 kts 184°
2026-04-23 15:28 55.68341 6.38500 37357 ft 429 kts 183°
2026-04-23 15:29 55.62370 6.38190 37365 ft 429 kts 184°
2026-04-23 15:29 55.56405 6.37880 37372 ft 428 kts 183°
2026-04-23 15:30 55.50483 6.37574 37383 ft 429 kts 183°
2026-04-23 15:30 55.44520 6.37267 37372 ft 428 kts 183°
2026-04-23 15:31 55.38563 6.36924 37366 ft 428 kts 184°
2026-04-23 15:31 55.32615 6.36454 37383 ft 428 kts 184°
2026-04-23 15:32 55.26674 6.35969 37385 ft 427 kts 184°
2026-04-23 15:32 55.20733 6.35499 37385 ft 427 kts 184°
2026-04-23 15:33 55.14838 6.35043 37375 ft 427 kts 184°
2026-04-23 15:33 55.08902 6.34588 37382 ft 427 kts 183°
2026-04-23 15:34 55.02963 6.34136 37394 ft 427 kts 183°
2026-04-23 15:34 54.97022 6.33684 37387 ft 427 kts 183°
2026-04-23 15:35 54.91117 6.33237 37383 ft 428 kts 183°
2026-04-23 15:35 54.85167 6.32787 37381 ft 428 kts 183°
2026-04-23 15:36 54.79218 6.32338 37378 ft 428 kts 183°
2026-04-23 15:36 54.73265 6.31891 37395 ft 428 kts 183°
2026-04-23 15:37 54.67317 6.31445 37393 ft 428 kts 183°
2026-04-23 15:37 54.62372 6.31075 37398 ft 428 kts 183°
2026-04-23 15:38 54.55457 6.30560 37388 ft 428 kts 182°
2026-04-23 15:38 54.49504 6.30117 37386 ft 428 kts 182°
2026-04-23 15:39 54.43549 6.29676 37400 ft 428 kts 182°
2026-04-23 15:39 54.37598 6.29237 37403 ft 428 kts 182°
2026-04-23 15:40 54.31642 6.28798 37400 ft 428 kts 182°
2026-04-23 15:40 54.26693 6.28435 37402 ft 428 kts 182°
2026-04-23 15:41 54.19772 6.27928 37404 ft 428 kts 182°
2026-04-23 15:41 54.13816 6.27493 37406 ft 428 kts 182°
2026-04-23 15:42 54.08865 6.27133 37401 ft 429 kts 182°
2026-04-23 15:42 54.02904 6.26699 37411 ft 429 kts 182°
2026-04-23 15:43 53.96944 6.26268 37403 ft 429 kts 182°
2026-04-23 15:43 53.90007 6.25767 37410 ft 429 kts 182°
2026-04-23 15:44 53.84042 6.25338 37414 ft 429 kts 182°
2026-04-23 15:44 53.79079 6.24981 37404 ft 430 kts 181°
2026-04-23 15:45 53.73105 6.24554 37412 ft 430 kts 181°
2026-04-23 15:45 53.67127 6.24127 37408 ft 430 kts 181°
2026-04-23 15:46 53.61148 6.23701 37397 ft 430 kts 181°
2026-04-23 15:46 53.55162 6.23276 37412 ft 431 kts 181°
2026-04-23 15:47 53.49169 6.22852 37408 ft 431 kts 181°
2026-04-23 15:47 53.43168 6.22429 37408 ft 432 kts 181°
2026-04-23 15:48 53.37204 6.22009 37405 ft 432 kts 181°
2026-04-23 15:48 53.31190 6.21587 37415 ft 433 kts 181°
2026-04-23 15:49 53.25173 6.21166 37412 ft 433 kts 181°
2026-04-23 15:49 53.19155 6.20745 37408 ft 433 kts 181°
2026-04-23 15:50 53.13135 6.20326 37415 ft 433 kts 181°
2026-04-23 15:50 53.07154 6.19911 37403 ft 433 kts 181°
2026-04-23 15:51 53.01134 6.19494 37402 ft 433 kts 181°
2026-04-23 15:51 52.95112 6.19079 37395 ft 433 kts 181°
2026-04-23 15:52 52.89090 6.18664 37400 ft 433 kts 181°
2026-04-23 15:52 52.83111 6.18254 37404 ft 433 kts 181°
2026-04-23 15:53 52.77086 6.17841 37393 ft 433 kts 181°
2026-04-23 15:53 52.71061 6.17430 37393 ft 433 kts 181°
2026-04-23 15:54 52.65040 6.17020 37394 ft 433 kts 181°
2026-04-23 15:54 52.59015 6.16611 37401 ft 433 kts 180°
2026-04-23 15:55 52.53032 6.16206 37392 ft 433 kts 180°
2026-04-23 15:55 52.47005 6.15799 37387 ft 433 kts 180°
2026-04-23 15:56 52.40978 6.15393 37388 ft 433 kts 180°
2026-04-23 15:56 52.34953 6.14989 37394 ft 433 kts 180°
2026-04-23 15:57 52.28972 6.14588 37378 ft 433 kts 180°
2026-04-23 15:57 52.22952 6.14186 37378 ft 433 kts 180°
2026-04-23 15:58 52.16934 6.13785 37375 ft 433 kts 180°
2026-04-23 15:58 52.10918 6.13386 37385 ft 432 kts 180°
2026-04-23 15:59 52.04904 6.12987 37375 ft 432 kts 180°
2026-04-23 15:59 51.98932 6.12593 37378 ft 432 kts 180°
2026-04-23 16:00 51.92925 6.12197 37373 ft 432 kts 180°
2026-04-23 16:00 51.86919 6.11802 37384 ft 432 kts 180°
2026-04-23 16:01 51.80913 6.11409 37362 ft 432 kts 180°
2026-04-23 16:01 51.74950 6.11019 37354 ft 432 kts 180°
2026-04-23 16:02 51.68943 6.10627 37348 ft 432 kts 180°
2026-04-23 16:02 51.62935 6.10237 37357 ft 432 kts 179°
2026-04-23 16:03 51.56929 6.09847 37349 ft 432 kts 179°
2026-04-23 16:03 51.50960 6.09461 37352 ft 432 kts 179°
2026-04-23 16:04 51.44952 6.09074 37357 ft 432 kts 179°
2026-04-23 16:04 51.38946 6.08687 37361 ft 432 kts 179°
2026-04-23 16:05 51.33951 6.08367 37354 ft 432 kts 179°
2026-04-23 16:05 51.26924 6.07917 37358 ft 432 kts 179°
2026-04-23 16:06 51.20955 6.07536 37358 ft 432 kts 179°
2026-04-23 16:06 51.14941 6.07153 37360 ft 432 kts 179°
2026-04-23 16:07 51.08928 6.06771 37357 ft 433 kts 179°
2026-04-23 16:07 51.02913 6.06390 37356 ft 433 kts 179°
2026-04-23 16:08 50.96892 6.06010 37351 ft 433 kts 179°
2026-04-23 16:08 50.90908 6.05633 37348 ft 433 kts 179°
2026-04-23 16:09 50.84882 6.05254 37345 ft 433 kts 179°
2026-04-23 16:09 50.78857 6.04876 37350 ft 434 kts 179°
2026-04-23 16:10 50.72825 6.04499 37351 ft 434 kts 179°
2026-04-23 16:10 50.66835 6.04126 37346 ft 434 kts 179°
2026-04-23 16:11 50.60802 6.03750 37335 ft 434 kts 179°
2026-04-23 16:11 50.54771 6.03376 37336 ft 434 kts 179°
2026-04-23 16:12 50.48745 6.03003 37343 ft 433 kts 179°
2026-04-23 16:12 50.42754 6.02634 37332 ft 434 kts 179°
2026-04-23 16:13 50.36715 6.02262 37332 ft 435 kts 179°
2026-04-23 16:13 50.27640 6.01705 37330 ft 436 kts 179°
2026-04-23 16:14 50.21579 6.01334 37334 ft 437 kts 179°
2026-04-23 16:14 50.15539 6.00965 37329 ft 437 kts 179°
2026-04-23 16:15 50.09465 6.00772 37318 ft 434 kts 172°
2026-04-23 16:15 50.03636 6.02802 37325 ft 428 kts 156°
2026-04-23 16:16 49.98084 6.06137 37317 ft 428 kts 156°
2026-04-23 16:16 49.92539 6.09332 37318 ft 428 kts 157°
2026-04-23 16:17 49.86881 6.12249 37294 ft 431 kts 165°
2026-04-23 16:17 49.80883 6.12944 37313 ft 436 kts 178°
2026-04-23 16:18 49.74821 6.12620 37298 ft 436 kts 178°
2026-04-23 16:18 49.68797 6.12327 37295 ft 436 kts 178°
2026-04-23 16:19 49.62733 6.12082 37294 ft 436 kts 178°
2026-04-23 16:19 49.56662 6.11850 37299 ft 436 kts 178°
2026-04-23 16:20 49.50591 6.11615 37295 ft 436 kts 178°
2026-04-23 16:20 49.44527 6.11535 37299 ft 435 kts 175°
2026-04-23 16:21 49.38530 6.11872 37296 ft 434 kts 174°
2026-04-23 16:21 49.32494 6.12268 37307 ft 434 kts 174°
2026-04-23 16:22 49.26457 6.12627 37298 ft 434 kts 174°
2026-04-23 16:22 49.20423 6.12958 37297 ft 434 kts 174°
2026-04-23 16:23 49.14427 6.13277 37295 ft 434 kts 174°
2026-04-23 16:23 49.08396 6.13596 37296 ft 434 kts 174°
2026-04-23 16:24 49.02360 6.13915 37291 ft 434 kts 174°
2026-04-23 16:24 48.96326 6.14234 37295 ft 434 kts 174°
2026-04-23 16:25 48.90293 6.14552 37304 ft 434 kts 174°
2026-04-23 16:25 48.84295 6.14868 37293 ft 435 kts 174°
2026-04-23 16:26 48.78245 6.15185 37301 ft 435 kts 174°
2026-04-23 16:26 48.72191 6.15502 37301 ft 435 kts 174°
2026-04-23 16:27 48.66131 6.15819 37297 ft 436 kts 174°
2026-04-23 16:27 48.60098 6.16133 37297 ft 437 kts 174°
2026-04-23 16:28 48.54013 6.16449 37291 ft 438 kts 174°
2026-04-23 16:28 48.47926 6.16765 37279 ft 438 kts 174°
2026-04-23 16:29 48.41830 6.17080 37266 ft 438 kts 174°
2026-04-23 16:29 48.35772 6.17392 37258 ft 438 kts 174°
2026-04-23 16:30 48.29680 6.17705 37264 ft 438 kts 174°
2026-04-23 16:30 48.23591 6.18018 37274 ft 437 kts 174°
2026-04-23 16:31 48.17508 6.18329 37266 ft 437 kts 174°
2026-04-23 16:31 48.11480 6.18637 37268 ft 436 kts 174°
2026-04-23 16:32 48.05416 6.18946 37269 ft 436 kts 174°
2026-04-23 16:32 47.99357 6.19255 37261 ft 435 kts 175°
2026-04-23 16:33 47.93306 6.19561 37256 ft 435 kts 175°
2026-04-23 16:33 47.87298 6.19866 37248 ft 434 kts 175°
2026-04-23 16:34 47.81256 6.20171 37253 ft 434 kts 175°
2026-04-23 16:34 47.75215 6.20475 37241 ft 434 kts 175°
2026-04-23 16:35 47.69173 6.20779 37240 ft 435 kts 175°
2026-04-23 16:35 47.63127 6.21083 37254 ft 435 kts 175°
2026-04-23 16:36 47.57117 6.21384 37240 ft 436 kts 175°
2026-04-23 16:36 47.51056 6.21686 37245 ft 436 kts 175°
2026-04-23 16:37 47.44985 6.21989 37242 ft 437 kts 175°
2026-04-23 16:37 47.38905 6.22291 37237 ft 438 kts 175°
2026-04-23 16:38 47.32855 6.22591 37246 ft 438 kts 175°
2026-04-23 16:38 47.26754 6.22892 37235 ft 439 kts 175°
2026-04-23 16:39 47.20648 6.23194 37238 ft 440 kts 175°
2026-04-23 16:39 47.14527 6.23496 37230 ft 440 kts 175°
2026-04-23 16:40 47.08393 6.23381 37212 ft 446 kts 189°
2026-04-23 16:40 47.05427 6.22007 37237 ft 450 kts 201°
2026-04-23 16:40 47.02739 6.19740 37218 ft 456 kts 215°
2026-04-23 16:41 46.97906 6.13671 37229 ft 459 kts 219°
2026-04-23 16:41 46.93087 6.07541 37218 ft 459 kts 218°
2026-04-23 16:42 46.88208 6.01521 37215 ft 459 kts 217°
2026-04-23 16:42 46.85617 5.98831 37211 ft 455 kts 206°
2026-04-23 16:42 46.82751 5.96923 37226 ft 451 kts 196°
2026-04-23 16:43 46.76689 5.95235 37225 ft 446 kts 183°
2026-04-23 16:43 46.70505 5.94396 37219 ft 447 kts 184°
2026-04-23 16:44 46.64313 5.93411 37212 ft 448 kts 184°
2026-04-23 16:44 46.58118 5.92414 37220 ft 448 kts 184°
2026-04-23 16:45 46.51920 5.91426 37218 ft 448 kts 184°
2026-04-23 16:45 46.45759 5.90448 37224 ft 448 kts 184°
2026-04-23 16:46 46.39558 5.89464 37222 ft 448 kts 184°
2026-04-23 16:46 46.33353 5.88483 37223 ft 449 kts 184°
2026-04-23 16:47 46.27135 5.88116 37222 ft 446 kts 174°
2026-04-23 16:47 46.20943 5.88845 37211 ft 447 kts 173°
2026-04-23 16:48 46.14787 5.89541 37221 ft 447 kts 174°
2026-04-23 16:48 46.08571 5.90160 37204 ft 448 kts 174°
2026-04-23 16:49 46.02355 5.90761 37218 ft 447 kts 174°
2026-04-23 16:49 45.96153 5.90403 37219 ft 451 kts 194°
2026-04-23 16:50 45.93227 5.88756 37208 ft 454 kts 207°
2026-04-23 16:50 45.90651 5.86226 37222 ft 456 kts 217°
2026-04-23 16:50 45.85747 5.80420 37210 ft 457 kts 218°
2026-04-23 16:51 45.80822 5.74639 37201 ft 458 kts 218°
2026-04-23 16:51 45.75847 5.68926 37193 ft 459 kts 217°
2026-04-23 16:52 45.70888 5.63265 37186 ft 459 kts 217°
2026-04-23 16:52 45.66011 5.57365 37184 ft 460 kts 225°
2026-04-23 16:53 45.61675 5.50624 37194 ft 461 kts 227°
2026-04-23 16:53 45.57380 5.43816 37202 ft 461 kts 228°
2026-04-23 16:54 45.53036 5.37075 37211 ft 461 kts 227°
2026-04-23 16:54 45.48697 5.30418 37209 ft 462 kts 227°
2026-04-23 16:55 45.44324 5.23723 37209 ft 461 kts 228°
2026-04-23 16:55 45.39889 5.17132 37194 ft 462 kts 219°
2026-04-23 16:56 45.37108 5.14860 37235 ft 463 kts 201°
2026-04-23 16:56 45.33983 5.13729 36994 ft 468 kts 185°
2026-04-23 16:56 45.30769 5.13812 36517 ft 468 kts 175°
2026-04-23 16:56 45.27536 5.14252 35884 ft 467 kts 174°
2026-04-23 16:57 45.24303 5.14710 35230 ft 467 kts 175°
2026-04-23 16:57 45.21063 5.15123 34603 ft 468 kts 176°
2026-04-23 16:57 45.17809 5.15491 33888 ft 470 kts 176°
2026-04-23 16:57 45.14540 5.15804 33131 ft 471 kts 180°
2026-04-23 16:58 45.11283 5.15514 32450 ft 468 kts 190°
2026-04-23 16:58 45.08112 5.14512 31733 ft 467 kts 198°
2026-04-23 16:58 45.05093 5.12858 30991 ft 465 kts 209°
2026-04-23 16:58 45.02253 5.10843 30404 ft 461 kts 211°
2026-04-23 16:59 44.99415 5.08788 29811 ft 457 kts 210°
2026-04-23 16:59 44.96574 5.06738 29253 ft 461 kts 210°
2026-04-23 16:59 44.93706 5.04693 28707 ft 461 kts 209°
2026-04-23 16:59 44.90853 5.02685 28168 ft 455 kts 209°
2026-04-23 17:00 44.88034 5.00718 27628 ft 449 kts 209°
2026-04-23 17:00 44.85248 4.98782 27090 ft 445 kts 210°
2026-04-23 17:00 44.82488 4.96865 26567 ft 440 kts 209°
2026-04-23 17:00 44.79756 4.94968 26051 ft 435 kts 210°
2026-04-23 17:01 44.77085 4.93114 25558 ft 432 kts 211°
2026-04-23 17:01 44.74400 4.91251 25051 ft 429 kts 211°
2026-04-23 17:01 44.71734 4.89402 24543 ft 426 kts 211°
2026-04-23 17:01 44.69091 4.87549 24004 ft 424 kts 211°
2026-04-23 17:02 44.67345 4.86320 23642 ft 423 kts 211°
2026-04-23 17:02 44.63844 4.83854 22859 ft 419 kts 210°
2026-04-23 17:02 44.61250 4.82031 22312 ft 415 kts 210°
2026-04-23 17:02 44.58682 4.80230 21803 ft 410 kts 210°
2026-04-23 17:03 44.56140 4.78451 21297 ft 406 kts 209°
2026-04-23 17:03 44.53603 4.76864 20791 ft 404 kts 204°
2026-04-23 17:03 44.50996 4.75428 20277 ft 401 kts 203°
2026-04-23 17:03 44.48392 4.74048 19773 ft 399 kts 203°
2026-04-23 17:04 44.45874 4.72723 19289 ft 396 kts 202°
2026-04-23 17:04 44.43302 4.71363 18774 ft 394 kts 202°
2026-04-23 17:04 44.40751 4.70005 18236 ft 391 kts 202°
2026-04-23 17:04 44.38222 4.68652 17697 ft 388 kts 202°
2026-04-23 17:05 44.35717 4.67308 17176 ft 384 kts 202°
2026-04-23 17:05 44.33234 4.65973 16677 ft 380 kts 202°
2026-04-23 17:05 44.30808 4.64668 16195 ft 377 kts 202°
2026-04-23 17:05 44.28372 4.63358 15715 ft 374 kts 201°
2026-04-23 17:06 44.25959 4.62061 15230 ft 371 kts 201°
2026-04-23 17:06 44.23555 4.60771 14750 ft 368 kts 201°
2026-04-23 17:06 44.21169 4.59490 14259 ft 366 kts 200°
2026-04-23 17:06 44.18798 4.58220 13753 ft 364 kts 200°
2026-04-23 17:07 44.16449 4.56962 13239 ft 360 kts 200°
2026-04-23 17:07 44.14149 4.55733 12752 ft 357 kts 200°
2026-04-23 17:07 44.11841 4.54499 12266 ft 354 kts 200°
2026-04-23 17:07 44.09556 4.53279 11803 ft 350 kts 200°
2026-04-23 17:08 44.07291 4.52071 11349 ft 347 kts 200°
2026-04-23 17:08 44.05051 4.50876 11063 ft 340 kts 200°
2026-04-23 17:08 44.02875 4.49716 10905 ft 330 kts 200°
2026-04-23 17:08 44.00762 4.48593 10787 ft 320 kts 200°
2026-04-23 17:09 43.98703 4.47496 10621 ft 314 kts 200°
2026-04-23 17:09 43.96684 4.46423 10461 ft 307 kts 200°
2026-04-23 17:09 43.94741 4.45391 10328 ft 298 kts 199°
2026-04-23 17:09 43.92810 4.44367 10051 ft 295 kts 199°
2026-04-23 17:10 43.90910 4.43359 9893 ft 286 kts 199°
2026-04-23 17:10 43.89088 4.42393 9702 ft 279 kts 199°
2026-04-23 17:10 43.87250 4.41390 9197 ft 285 kts 204°
2026-04-23 17:10 43.85724 4.39644 8832 ft 287 kts 232°
2026-04-23 17:11 43.84823 4.37218 8503 ft 282 kts 248°
2026-04-23 17:11 43.84211 4.34680 8213 ft 275 kts 250°
2026-04-23 17:11 43.83647 4.32185 7958 ft 275 kts 250°
2026-04-23 17:11 43.83077 4.29652 7676 ft 275 kts 250°
2026-04-23 17:12 43.82502 4.27126 7396 ft 275 kts 250°
2026-04-23 17:12 43.81923 4.24606 7120 ft 275 kts 250°
2026-04-23 17:12 43.81339 4.22090 6843 ft 274 kts 249°
2026-04-23 17:12 43.80755 4.19590 6566 ft 273 kts 249°
2026-04-23 17:13 43.80169 4.17094 6281 ft 272 kts 249°
2026-04-23 17:13 43.79584 4.14608 5989 ft 271 kts 250°
2026-04-23 17:13 43.79007 4.12164 5706 ft 270 kts 250°
2026-04-23 17:13 43.78425 4.09705 5451 ft 268 kts 250°
2026-04-23 17:14 43.77852 4.07281 5314 ft 261 kts 250°
2026-04-23 17:14 43.77293 4.04922 5184 ft 254 kts 249°
2026-04-23 17:14 43.76749 4.02630 5061 ft 247 kts 249°
2026-04-23 17:14 43.76221 4.00405 4953 ft 240 kts 249°
2026-04-23 17:15 43.75705 3.98233 4864 ft 235 kts 250°
2026-04-23 17:15 43.75195 3.96095 4655 ft 234 kts 249°
2026-04-23 17:15 43.74692 3.93989 4469 ft 227 kts 249°
2026-04-23 17:15 43.74212 3.91976 4241 ft 220 kts 249°
2026-04-23 17:16 43.73739 3.89996 4014 ft 214 kts 249°
2026-04-23 17:16 43.73279 3.88072 3792 ft 208 kts 249°
2026-04-23 17:16 43.72830 3.86200 3584 ft 202 kts 249°
2026-04-23 17:16 43.72393 3.84376 3395 ft 198 kts 248°
2026-04-23 17:17 43.71962 3.82583 3182 ft 196 kts 248°
2026-04-23 17:17 43.71504 3.80824 3051 ft 194 kts 239°
2026-04-23 17:17 43.70942 3.79930 3000 ft 181 kts 211°
2026-04-23 17:17 43.69600 3.78690 2991 ft 172 kts 211°
2026-04-23 17:18 43.67440 3.78345 2927 ft 168 kts 146°
2026-04-23 17:18 43.66679 3.79570 2848 ft 169 kts 127°
2026-04-23 17:18 43.66008 3.80884 2719 ft 166 kts 126°
2026-04-23 17:19 43.65350 3.82181 2610 ft 164 kts 127°
2026-04-23 17:19 43.64699 3.83470 2498 ft 165 kts 127°
2026-04-23 17:19 43.64030 3.84791 2251 ft 168 kts 127°
2026-04-23 17:19 43.63371 3.86100 1987 ft 168 kts 127°
2026-04-23 17:20 43.62721 3.87394 1733 ft 159 kts 127°
2026-04-23 17:20 43.61505 3.89813 1281 ft 148 kts 127°
2026-04-23 17:21 43.60310 3.92169 787 ft 152 kts 127°
2026-04-23 17:21 43.59706 3.93376 562 ft 154 kts 127°
2026-04-23 17:21 43.58534 3.95731 37 ft 145 kts 128°
2026-04-23 17:22 43.58018 3.96749 14 ft 107 kts 125°
2026-04-23 17:22 43.57530 3.97715 16 ft 46 kts 125°
2026-04-23 17:23 43.57270 3.98168 15 ft 16 kts 172°
2026-04-23 17:23 43.57185 3.98098 14 ft 15 kts 244°
2026-04-23 17:23 43.57256 3.97861 13 ft 13 kts 304°
2026-04-23 17:24 43.57308 3.97757 13 ft 13 kts 306°
2026-04-23 17:24 43.57359 3.97659 15 ft 13 kts 304°
2026-04-23 17:24 43.57459 3.97459 17 ft 14 kts 304°
2026-04-23 17:25 43.57609 3.97160 15 ft 25 kts 305°
2026-04-23 17:25 43.57713 3.96956 11 ft 27 kts 305°
2026-04-23 17:26 43.57893 3.96597 11 ft 10 kts 304°
2026-04-23 17:26 43.57915 3.96553 12 ft 2 kts 304°
2026-04-23 17:27 43.58007 3.96371 13 ft 18 kts 305°
2026-04-23 17:27 43.58035 3.96264 14 ft 10 kts 238°
2026-04-23 17:27 43.57983 3.96205 14 ft 10 kts 223°
2026-04-23 17:27 43.57967 3.96155 14 ft 2 kts 269°
2026-04-23 17:28 43.57964 3.96128 16 ft 5 kts 249°
2026-04-23 17:28 43.57942 3.96091 14 ft 4 kts 245°
2026-04-23 17:28 43.57935 3.96060 14 ft 3 kts 254°
2026-04-23 17:28 43.57933 3.96050 14 ft 0 kts 255°